Regional Weather Roundup
Issued by NWS

Home | Current Version | Previous Version | Graphics & Text | Print | Product List | Glossary On
Versions: 1 2 3 4 5 6 7 8 9 10 11 12 13 14 15 16 17 18 19 20 21 22 23 24 25 26 27 28 29 30 31 32 33 34 35 36 37 38 39 40 41 42 43 44 45 46 47 48 49 50
000
ASUS43 KLOT 292010
RWRIL

ILLINOIS REGIONAL WEATHER ROUNDUP
NATIONAL WEATHER SERVICE CHICAGO/ROMEOVILLE IL
300 PM CDT FRI AUG 29 2014

NOTE: "FAIR" INDICATES FEW OR NO CLOUDS BELOW 12,000 FEET WITH NO
SIGNIFICANT WEATHER AND/OR OBSTRUCTIONS TO VISIBILITY.

* THESE STATIONS ARE NOT UNDER NWS QUALITY CONTROL. THEY ALSO MAY NOT
  REPORT WEATHER SUCH AS PRECIPITATION OR FOG.

ILZ001-002-007-009-015-016-024-292100-
NORTHWEST ILLINOIS

CITY           SKY/WX    TMP DP  RH WIND       PRES   REMARKS
MOLINE         SUNNY     87  72  60 S12       29.84F HX  93
STERLING*      MOSUNNY   86  73  66 S8        29.86F HX  93
SAVANNA*       MOSUNNY   88  69  53 S10       29.84F HX  93
$$

ILZ003-004-008-010-011-017-018-292100-
NORTH CENTRAL ILLINOIS

CITY           SKY/WX    TMP DP  RH WIND       PRES   REMARKS
ROCKFORD       MOSUNNY   84  72  67 S17       29.89F HX  89
FREEPORT*      MOSUNNY   83  75  77 S13       29.89F HX  90
ROCHELLE*      MOSUNNY   83  70  64 S10G17    29.89F HX  87
DE KALB*       MOSUNNY   81  72  74 S15       29.92F HX  85
PERU*          SUNNY     85  72  63 S13       29.89F HX  91
$$

ILZ005-006-012>014-019>023-292100-
NORTHEAST ILLINOIS

CITY           SKY/WX    TMP DP  RH WIND       PRES   REMARKS
CHICAGO-OHARE  CLOUDY    85  70  60 SE13      29.90F HX  89
CHICAGO-MIDWAY PTSUNNY   86  73  65 S10       29.91F HX  93
AURORA         MOSUNNY   85  73  67 SE12      29.91F HX  91
LANSING*       PTSUNNY   82  71  71 S9        29.94F HX  86
JOLIET*        MOSUNNY   84  71  65 S7        29.92F HX  88
WAUKEGAN       PTSUNNY   81  72  74 SE14      29.90F HX  85
DUPAGE AIRPORT PTSUNNY   86  73  65 S13G18    29.90F HX  93
KANKAKEE*      MOSUNNY   83  75  77 SE7       29.93F HX  90
WHEELING       PTSUNNY   85  71  63 S8        29.92F HX  90
MORRIS*        SUNNY     85  73  67 SE7       29.91F HX  92
ROMEOVILLE*    MOSUNNY   84  72  67 S12       29.91F HX  89
NORTHERLY ISL    N/A     85  69  58 S8          N/A  HX  89
$$

LMZ740>746-292100-
SOUTHERN LAKE MICHIGAN

STATION/POSITION SKY/WX   TEMP    WIND        PRES    VSBY  WAVE
                          AIR SEA DIR/SP/G                  HT/PER
                          (F)     (DEG/KT/KT) (MB)    (MI)  (FT/S)
SOUTHERN BUOY              71 69  150/ 16/ 17 1013.6F         2/ 5
WAUKEGAN HARBOR            75     130/ 17/ 18   N/A
HARRISON CRIB              76     140/ 12/ 13   N/A
BURNHAM HARBOR             83     180/  7/ 13   N/A
CALUMET HARBOR             83     170/  9/ 12 1012.4F
MICHIGAN CITY              77     130/ 11/ 14   N/A
MICHIGAN CITY 6N           76 71  150/ 10/ 12   N/A           1/ 2
ST. JOSEPH                 74 71  150/ 10/ 12   N/A           1/ 3
$$

ILZ025>027-034>036-040-047-049-050-058-095>099-292100-
WEST-CENTRAL ILLINOIS

CITY           SKY/WX    TMP DP  RH WIND       PRES   REMARKS
QUINCY         SUNNY     88  64  44 S13       29.85F HX  89
GALESBURG*     PTSUNNY   86  72  63 SE8       29.86F HX  92
MACOMB*        MOSUNNY   84  68  57 S10G17    29.88F HX  87
JACKSONVILLE*  MOSUNNY   84  73  69 SE17G28   29.89F HX  91
PITTSFIELD*    SUNNY     89  65  44 S8        29.87F HX  91
$$

ILZ028>032-037-038-041>044-048-051>054-059>061-292100-
CENTRAL ILLINOIS

CITY           SKY/WX    TMP DP  RH WIND       PRES   REMARKS
PONTIAC        SUNNY     86  73  66 S8        29.91F HX  93
DECATUR        MOSUNNY   89  69  51 S13       29.91F HX  93
PEORIA         PTSUNNY   88  72  58 S13       29.87F HX  94
LACON*         SUNNY     85  71  63 S7        29.87F HX  89
LINCOLN*       PTSUNNY   88  73  60 S6        29.86F HX  96
SPRINGFIELD    MOSUNNY   86  72  62 SE9       29.88F HX  92
TAYLORVILLE    MOSUNNY   84  72  65 S12       29.89F HX  89
$$

ILZ033-039-045-046-055>057-062-063-292100-
EAST-CENTRAL ILLINOIS

CITY           SKY/WX    TMP DP  RH WIND       PRES   REMARKS
CHAMPAIGN      MOSUNNY   86  74  67 S10       29.93F HX  94
DANVILLE*      RAIN      81  70  68 CALM      29.92F HX  84
RANTOUL*       PTSUNNY   83  70  64 SE6       29.95F HX  88
MATTOON        MOSUNNY   87  72  60 S8        29.92F HX  93
PARIS*         MOSUNNY   86  74  68 SE8       29.94F HX  94
$$

ILZ079-100>102-292100-
SOUTHWEST ILLINOIS

CITY           SKY/WX    TMP DP  RH WIND       PRES   REMARKS
ALTON          MOSUNNY   90  63  40 S12G18    29.89F HX  90
BELLEVILLE     SUNNY     89  71  54 VRB7      29.88F HX  94
CAHOKIA*       SUNNY     91  64  40 SE14      29.87F HX  93
SPARTA*        SUNNY     87  68  53 S9G16     29.91F HX  91
$$

ILZ064>066-069>071-074>076-080>082-084>086-088>090-092>094-292100-
SOUTH-CENTRAL ILLINOIS

CITY           SKY/WX    TMP DP  RH WIND       PRES   REMARKS
CARBONDALE     MOSUNNY   88  66  48 S12       29.92F HX  90
CAIRO*         SUNNY     91  69  48 S9        29.93F HX  95
EFFINGHAM*     MOSUNNY   89  63  41 S9        29.92F HX  89
MARION         MOSUNNY   90  68  48 S12       29.94F HX  93
MT. VERNON     PTSUNNY   88  72  58 S8        29.92F HX  94
CENTRALIA*     MOSUNNY   88  68  51 S13       29.92F HX  91
SALEM*         MOSUNNY   88  72  58 S10G17    29.91F HX  94
METROPOLIS*    MOSUNNY   90  68  48 S8        29.93F HX  93
$$

ILZ067-068-072-073-078-083-087-091-292100-
SOUTHEAST ILLINOIS

CITY           SKY/WX    TMP DP  RH WIND       PRES   REMARKS
LAWRENCEVILLE  PTSUNNY   87  73  62 S7        29.93F HX  94
FLORA*         SUNNY     86  69  56 S10G16    29.93F HX  91
FAIRFIELD*     MOSUNNY   90  73  58 S8        29.92F HX  98
HARRISBURG*    MOSUNNY   89  66  46 S12       29.94F HX  91
ROBINSON*      TSTM      79  73  82 E8G25     29.95S HX  83
CARMI*         MOSUNNY   92  71  49 SW8       29.93F HX  98
$$

ABBREVIATIONS USED IN REMARKS
   TC - TEMPERATURE IN CELSIUS
  WCI - WIND CHILL INDEX
   HX - HEAT INDEX
  VSB - VISIBILITY
$$




USA.gov is the U.S. government's official web portal to all federal, state and local government web resources and services.